GFSGL_sfc_temp_132.txt.gz
Temp
72 71 72 72 72 72 71 72 73 74 74 74 74 75 75 75 76 75 74 75 75 75 76 76 76 76 75 75 76 74 75 74 72 76 76 78 78 79 80 81 82 83 82
73 72 72 73 73 73 73 73 74 73 75 75 75 74 75 76 75 75 75 77 75 75 76 75 76 78 75 76 76 75 75 74 74 72 74 77 77 78 79 79 80 85 82
72 72 71 72 72 73 73 74 74 74 74 74 74 74 74 75 75 75 75 75 76 76 76 75 76 76 75 75 75 75 76 76 75 73 75 76 76 78 77 78 78 78 83
72 72 71 71 72 72 73 73 73 74 74 75 74 74 73 74 75 76 76 75 75 76 76 76 76 75 75 75 75 75 75 74 74 73 73 73 74 76 76 75 76 78 78
72 71 72 72 73 73 73 73 74 74 73 74 74 74 74 75 76 75 75 75 75 75 75 76 76 75 72 73 76 73 74 73 73 73 72 72 73 74 73 74 73 75 76
72 71 71 71 71 72 72 72 73 73 73 73 73 74 73 71 64 65 68 71 72 73 73 75 74 71 71 68 68 68 73 74 73 72 71 71 72 73 74 73 73 72 71
70 69 70 70 70 70 70 71 70 70 71 69 70 70 68 67 62 62 65 68 70 72 73 73 73 74 69 73 67 66 66 65 67 73 72 71 71 72 71 72 72 71 71
68 68 69 68 68 68 69 70 70 70 70 68 67 67 66 63 60 60 62 65 67 70 70 71 72 69 66 69 72 68 69 69 69 70 69 69 69 71 71 74 72 71 71
67 68 68 68 67 67 67 69 69 68 68 65 64 64 63 61 57 58 61 65 68 65 65 65 65 66 62 64 71 69 68 67 64 62 62 62 62 62 64 73 69 70 70
67 67 68 68 67 67 68 68 68 67 65 60 58 57 58 59 56 57 60 68 64 62 62 62 60 62 58 60 68 67 66 66 68 67 66 65 64 64 62 63 65 66 65
67 67 67 67 67 67 67 66 64 62 59 58 56 57 56 57 57 56 58 65 62 62 62 61 61 56 55 55 59 67 65 65 63 64 64 64 63 63 63 63 60 63 62
67 66 66 66 67 66 64 63 61 59 58 57 56 57 57 56 54 54 56 58 60 58 58 58 56 52 52 54 57 55 57 62 63 61 60 59 59 59 60 60 58 58 60
61 60 59 60 62 64 63 61 59 60 60 59 60 58 57 56 55 53 54 56 57 57 57 55 53 52 53 55 55 56 58 59 58 56 56 56 56 56 58 58 58 57 56
57 56 56 55 56 56 56 58 62 61 60 60 60 60 58 57 57 57 57 58 56 57 56 55 54 54 54 55 55 55 58 57 57 56 55 55 56 55 54 55 53 55 54
56 55 54 54 51 49 46 48 53 48 50 57 58 58 58 57 55 50 52 56 56 54 56 57 56 55 54 54 54 55 55 55 53 54 54 53 53 53 52 53 52 52 50
57 56 54 52 52 51 50 48 46 45 45 44 44 52 51 46 45 44 42 43 47 47 56 53 53 53 54 55 53 52 53 53 53 53 52 52 51 51 50 50 51 49 48
56 55 55 55 54 52 52 53 53 49 46 42 42 43 43 44 43 42 42 43 45 49 57 53 52 53 53 53 52 51 49 50 50 50 49 49 49 48 48 47 47 47 46
56 53 56 55 54 55 54 53 53 53 53 52 46 47 43 42 42 42 42 44 51 50 52 52 51 51 53 52 51 50 49 49 48 48 47 47 47 47 47 46 46 45 46
55 55 55 55 55 54 54 53 53 52 52 51 52 50 47 44 43 43 43 55 53 51 51 50 52 52 51 50 49 48 47 47 47 46 45 45 46 47 45 45 45 44 46
55 56 55 54 54 55 55 54 53 53 53 53 53 53 52 51 52 52 53 53 53 53 52 51 50 49 49 48 47 47 45 45 45 45 44 44 44 44 44 43 44 45 46
55 54 56 54 54 54 54 54 54 53 54 53 53 51 47 54 52 53 52 52 52 52 50 51 49 49 48 47 47 46 45 44 43 42 42 42 42 41 42 44 44 45 45
55 55 54 55 53 53 54 54 54 55 55 54 52 51 45 54 53 52 52 52 52 52 52 50 49 49 49 48 47 47 45 44 43 44 43 43 43 42 43 43 43 43 45
54 54 53 53 53 52 53 53 54 54 55 54 53 53 53 54 53 52 52 52 51 51 51 50 49 48 48 48 48 47 45 44 44 44 43 43 43 42 43 42 43 44 45
55 55 54 54 53 53 53 53 53 49 54 54 53 53 54 54 54 53 53 52 51 51 51 51 50 49 48 48 47 47 46 45 45 45 44 44 44 42 44 43 44 43 43
55 55 54 54 54 54 53 53 53 53 54 54 52 52 52 53 52 53 53 52 52 51 50 50 50 49 48 47 47 47 41 37 43 40 44 43 43 42 43 44 42 42 42
54 54 53 53 53 53 53 52 50 53 52 54 53 51 51 51 51 52 51 50 51 51 50 49 49 49 48 47 47 41 33 34 41 36 44 44 44 44 45 43 42 43 43

GFSGL_sfc_temp_135.txt.gz
Temp
82 82 81 81 82 81 82 82 82 82 82 82 83 84 84 84 84 82 83 84 83 84 85 84 84 84 87 87 87 87 86 85 83 88 88 89 86 86 88 89 90 91 91
83 81 81 82 82 82 81 82 82 82 82 83 83 82 83 84 83 82 83 86 83 83 84 83 84 87 83 83 86 83 85 85 84 80 84 87 85 86 85 85 88 93 91
82 82 81 81 82 82 82 82 83 81 82 83 83 82 83 83 83 82 83 84 84 84 84 84 84 84 82 85 83 84 84 86 84 83 84 87 86 87 86 87 86 86 93
81 80 79 80 81 82 81 81 81 82 81 81 82 82 82 83 83 83 84 83 83 84 85 85 84 84 83 84 84 82 84 83 83 83 84 84 85 86 85 84 86 86 85
80 80 79 80 81 81 80 81 82 81 81 79 82 82 83 83 86 84 82 82 82 83 84 84 84 82 72 75 80 81 81 79 78 79 82 83 84 84 82 84 84 86 83
76 79 80 80 79 79 80 79 80 81 82 81 77 80 81 82 65 66 71 79 80 80 80 82 82 75 74 68 68 68 72 78 79 78 77 76 77 81 84 82 83 82 81
74 77 78 79 79 79 80 79 79 79 79 79 79 80 77 77 63 63 66 75 79 80 80 81 81 81 75 79 68 66 67 66 68 78 77 79 79 81 79 79 79 80 80
75 75 76 75 75 75 77 77 77 78 77 77 75 75 74 67 59 60 64 75 75 76 78 79 79 80 74 74 75 75 75 76 76 81 78 78 78 78 78 82 79 78 75
72 71 71 71 70 70 70 72 70 71 70 71 73 72 71 70 58 57 62 75 75 73 68 67 67 68 63 63 71 68 72 72 64 62 62 62 61 62 68 83 81 81 81
67 68 69 69 68 68 68 69 70 69 66 63 60 60 58 64 58 56 60 73 69 67 63 64 60 66 59 61 77 75 72 73 75 74 75 71 70 68 65 72 79 79 78
72 70 69 69 68 68 69 67 67 64 62 59 58 57 59 57 61 55 58 67 65 63 62 64 66 57 55 55 61 76 73 73 68 74 75 74 73 73 72 70 68 73 75
68 69 70 69 69 67 65 63 63 62 59 58 58 60 62 61 54 55 55 58 61 61 59 57 56 52 52 54 59 56 58 64 69 69 71 70 70 69 69 68 65 66 66
65 62 62 63 62 65 63 61 59 59 58 56 58 57 60 61 61 53 54 55 57 62 59 55 53 51 52 54 55 56 59 62 61 60 56 57 59 62 67 66 64 63 63
59 59 56 56 55 55 56 60 60 60 60 61 65 63 62 63 62 61 59 59 57 58 57 55 53 53 53 54 55 57 58 59 60 59 58 63 65 64 64 66 66 68 68
58 56 55 55 53 51 49 52 54 50 50 61 61 62 59 57 52 48 49 54 57 57 55 55 57 57 54 55 54 54 56 58 59 59 58 59 61 62 63 64 64 64 62
56 56 55 55 55 54 52 49 47 46 45 43 45 52 51 49 45 43 43 45 47 49 63 59 56 55 56 57 61 63 64 61 63 64 63 61 61 60 60 61 62 59 58
64 61 60 60 62 61 61 61 57 50 45 43 43 44 45 46 43 43 43 44 46 50 63 60 64 61 57 56 59 60 62 61 60 62 62 61 61 60 61 59 59 58 57
66 56 66 66 66 66 63 60 61 60 59 58 48 49 43 42 43 42 43 47 54 54 59 58 56 56 54 57 56 61 57 61 60 60 59 60 61 62 61 59 60 58 60
65 66 65 66 67 64 65 65 66 63 63 59 58 51 48 43 42 42 43 62 63 61 60 63 62 59 55 53 54 55 54 57 58 59 60 59 59 60 59 59 55 49 52
65 58 62 66 66 66 66 68 64 65 64 65 65 66 63 57 63 62 62 61 63 65 63 62 61 61 59 58 56 53 52 52 54 53 55 54 53 54 56 55 55 56 56
70 67 59 67 68 68 67 67 66 67 67 66 66 64 50 65 68 66 65 64 64 64 62 62 61 59 58 57 56 56 57 55 53 52 51 50 50 51 51 51 52 52 55
70 70 69 70 69 67 68 69 68 68 68 68 67 63 45 64 67 66 65 64 64 64 64 62 60 60 59 58 57 57 55 54 53 53 51 49 50 50 52 51 51 52 54
71 70 69 68 68 61 65 68 68 68 68 68 68 67 65 67 66 66 64 65 63 63 63 62 60 59 59 60 60 58 57 56 56 55 53 52 50 52 52 53 55 55 56
70 69 68 68 67 67 67 67 67 58 65 68 68 67 67 67 67 66 66 66 64 63 62 62 61 60 59 59 59 59 58 57 56 55 54 55 54 49 54 54 55 53 55
69 68 68 68 67 67 66 65 66 67 67 67 67 67 67 67 66 66 65 65 64 63 62 62 61 60 59 58 58 58 45 39 52 46 55 53 52 50 54 57 55 56 53
67 67 65 64 64 63 65 65 65 63 63 58 61 64 65 64 64 64 63 61 61 60 61 60 60 59 58 58 57 44 34 36 45 37 55 55 54 55 55 54 52 57 55

GFSGL_sfc_temp_138.txt.gz
Temp
88 88 87 88 88 87 88 88 88 88 88 87 88 88 88 88 88 87 87 89 88 88 89 88 88 89 92 95 94 94 93 92 88 92 95 96 89 90 92 93 96 96 87
89 88 87 87 88 88 87 88 89 87 87 87 86 88 88 89 89 87 87 90 88 87 88 88 88 92 88 88 92 88 90 89 88 83 90 92 89 89 90 89 93 100 95
89 89 88 87 87 87 88 87 88 87 87 88 87 87 87 88 87 88 88 89 89 89 89 89 88 88 87 89 89 89 92 92 89 89 88 94 93 92 91 91 90 91 97
89 88 86 86 87 88 88 87 88 88 86 87 87 85 87 88 89 89 88 88 88 90 90 90 89 89 87 85 87 86 88 86 88 85 87 91 92 90 90 90 85 89 90
87 86 85 86 87 86 87 86 87 87 84 86 84 87 88 89 89 89 87 87 87 87 88 89 90 85 74 75 84 84 83 84 85 83 86 87 86 86 85 89 86 86 84
87 86 86 85 85 85 85 85 85 86 87 86 86 83 85 84 65 67 72 83 83 82 85 86 88 79 78 71 69 68 73 80 78 84 87 82 82 85 82 84 86 87 77
82 83 83 84 84 82 85 85 84 85 86 85 86 87 85 72 63 64 66 83 82 81 82 84 84 90 79 86 69 68 68 67 69 79 81 81 80 81 81 81 80 83 84
77 77 79 82 83 83 84 84 84 81 81 82 84 84 83 74 60 61 64 80 84 84 83 84 84 85 82 81 85 84 83 80 73 82 83 82 82 81 82 84 80 81 82
78 78 80 79 78 79 78 79 76 77 76 80 81 81 81 78 59 59 65 83 84 81 82 77 72 76 64 64 78 80 80 74 65 62 62 62 63 64 70 84 81 84 77
76 74 75 76 71 74 71 71 70 71 69 68 65 66 60 67 56 56 66 82 80 82 78 77 60 68 59 61 70 74 72 77 77 75 74 71 73 71 69 76 83 82 82
76 76 74 73 73 74 73 71 71 67 64 62 59 59 59 56 60 54 57 70 69 68 72 74 70 56 54 55 58 74 73 79 74 79 80 80 81 79 78 76 73 77 78
75 76 76 74 72 68 66 64 63 62 59 57 56 57 59 60 53 54 55 58 62 66 62 60 57 52 51 54 60 56 59 67 76 74 76 66 69 67 68 67 67 70 69
73 71 67 67 66 69 65 63 61 60 58 57 57 57 57 59 60 54 54 57 58 68 65 54 53 52 53 55 55 57 61 66 64 62 59 58 61 63 64 64 63 66 67
66 63 64 62 58 58 61 64 63 62 60 59 60 58 58 60 65 68 69 66 58 59 57 55 55 55 54 54 56 56 58 59 59 61 59 61 61 62 63 64 64 70 74
63 60 56 56 54 50 51 57 62 58 56 63 62 58 57 58 61 57 60 68 68 60 60 61 58 62 61 60 60 59 58 58 60 60 58 62 63 68 64 66 68 69 69
58 58 58 58 57 54 53 54 47 46 45 44 45 56 58 49 45 44 44 45 47 51 67 72 66 63 61 64 68 70 70 68 71 71 71 72 71 71 69 69 70 69 68
62 63 64 69 71 72 70 69 66 56 45 44 44 44 45 47 44 43 43 44 46 52 63 60 60 64 59 63 63 63 62 64 66 70 71 71 72 69 69 70 69 69 68
72 60 74 74 75 74 73 73 74 72 70 67 49 50 45 43 43 43 45 49 60 58 61 62 58 56 62 63 61 64 59 60 60 62 65 67 66 69 69 69 69 66 67
74 74 75 76 76 72 76 75 76 73 71 71 70 54 50 44 43 43 44 65 69 70 70 70 71 71 69 67 67 65 66 66 64 65 63 63 66 68 64 63 62 49 52
72 64 67 76 74 74 76 76 75 76 75 76 77 76 72 63 69 69 68 67 69 70 70 69 69 69 67 65 64 65 61 61 60 61 60 60 58 60 58 59 60 58 58
78 75 62 78 79 79 79 77 78 76 75 75 74 72 52 72 75 75 73 71 72 72 70 70 67 65 65 64 65 63 64 64 64 63 62 61 62 62 59 58 58 59 58
80 78 78 80 78 74 76 76 76 76 77 76 76 70 48 69 74 74 74 73 73 72 73 70 69 68 69 66 65 67 65 64 64 62 62 63 62 61 61 61 62 61 60
82 82 80 79 78 65 72 75 76 76 75 76 76 76 73 72 75 74 73 74 72 72 72 71 69 68 68 68 67 66 65 65 65 66 64 63 62 62 62 62 62 62 62
80 79 78 78 76 75 75 75 75 63 71 75 75 74 74 75 75 74 74 73 72 72 71 70 70 68 67 67 68 68 67 67 66 64 62 64 65 55 63 64 64 61 63
75 76 76 76 75 75 74 74 74 74 74 74 74 75 75 75 75 75 74 74 72 72 70 70 70 68 66 65 66 65 45 42 57 50 64 61 60 57 63 65 63 61 58
77 76 74 74 74 73 72 72 72 71 71 70 68 69 71 70 67 73 73 73 71 71 70 68 67 65 64 62 61 43 34 38 49 39 58 62 60 61 63 61 56 61 59

GFSGL_sfc_temp_141.txt.gz
Temp
90 90 89 89 90 88 89 89 89 90 90 90 89 90 90 90 89 86 87 87 88 89 90 89 89 90 92 94 94 96 94 94 89 93 94 87 91 91 92 93 94 80 80
91 90 89 89 90 90 89 90 90 89 89 89 87 88 88 89 89 88 87 90 89 88 89 89 89 93 87 87 92 88 90 91 88 83 87 89 89 91 91 90 93 91 84
91 91 89 89 89 89 89 89 90 89 89 89 86 87 87 89 89 89 89 89 89 90 91 90 89 85 84 90 88 88 89 83 80 83 78 90 83 94 92 89 91 81 85
92 90 88 88 88 90 89 89 89 89 87 87 88 87 87 88 89 89 89 87 89 90 87 89 87 83 86 88 87 83 88 86 88 86 87 86 81 83 83 86 78 87 83
90 89 88 88 89 89 89 89 89 89 87 88 88 87 87 89 92 90 87 86 85 86 87 86 88 85 76 78 87 85 82 84 83 80 82 83 87 88 83 83 88 81 85
90 88 89 87 87 87 87 87 87 86 87 87 86 86 85 83 67 69 74 85 83 83 82 83 84 80 81 74 74 71 74 79 80 82 83 73 81 84 85 82 82 73 74
89 89 88 87 86 84 86 86 86 85 86 86 86 86 85 81 64 65 68 85 83 84 82 80 76 79 78 84 70 69 70 70 71 79 78 80 79 81 81 81 81 80 77
85 85 83 85 85 84 84 81 83 83 83 82 83 84 84 72 62 62 65 81 85 86 84 84 82 79 76 76 84 83 82 79 76 80 82 79 78 78 82 84 80 80 81
82 82 80 77 80 80 79 83 82 81 80 79 78 74 76 70 59 59 64 85 85 83 82 81 77 80 64 63 76 80 81 77 65 63 63 64 64 65 71 82 78 75 74
82 82 83 80 80 78 75 79 74 78 73 73 66 68 62 67 56 57 64 83 77 79 81 77 59 62 58 62 73 76 77 78 76 74 69 69 71 72 70 76 79 80 79
73 76 76 80 80 80 78 76 76 72 70 66 62 61 62 57 60 55 58 71 73 76 74 68 65 55 55 56 61 70 69 73 71 75 74 77 81 78 74 70 69 71 72
76 76 77 77 77 74 71 70 63 61 60 59 58 58 59 57 55 55 56 58 63 66 63 62 57 52 52 53 59 57 60 64 66 67 64 65 64 70 64 64 64 63 63
74 73 70 69 70 72 70 67 63 60 59 58 57 56 56 58 58 54 54 56 57 66 67 56 54 53 54 59 55 57 59 61 61 58 54 55 59 63 64 63 63 63 63
70 68 66 64 66 68 69 68 64 62 61 60 60 59 59 60 61 62 65 65 59 60 59 60 58 58 57 59 60 59 60 60 60 56 57 58 57 56 56 63 65 64 63
65 64 64 63 58 56 56 58 68 62 60 67 67 66 60 59 59 52 52 67 70 64 66 67 63 63 67 67 66 64 59 61 61 60 59 60 61 63 63 66 69 71 71
65 66 64 65 68 64 62 62 47 47 46 45 46 57 58 49 46 45 45 47 49 51 66 68 67 63 62 64 65 64 67 67 68 68 67 66 66 67 68 71 71 71 70
67 68 71 72 70 69 71 73 69 56 46 45 45 46 46 47 46 45 45 46 47 51 71 72 69 67 67 62 62 65 66 68 67 69 69 67 64 63 61 67 69 69 69
74 63 77 77 77 78 76 76 76 73 71 67 49 53 45 44 45 45 45 47 66 62 70 70 69 68 66 67 68 68 68 68 68 68 68 68 65 66 66 68 69 65 66
78 79 80 80 79 76 79 79 79 76 76 75 71 54 50 45 45 45 45 64 70 71 73 69 70 70 70 68 68 68 67 69 67 68 69 68 67 67 65 65 62 53 55
76 67 71 80 78 79 80 81 81 78 78 78 79 78 72 63 68 71 70 71 72 74 75 74 73 73 69 68 67 66 64 61 63 64 61 61 62 63 60 59 59 59 59
79 77 63 81 82 81 82 81 81 80 78 78 78 70 49 74 75 76 76 75 74 74 75 74 72 71 70 68 67 66 66 67 65 64 64 63 61 61 62 62 62 61 62
82 81 81 83 80 78 80 80 79 79 79 79 79 69 54 74 74 76 75 75 76 74 75 73 71 71 71 69 67 68 68 67 67 65 65 65 64 63 63 63 63 63 62
85 84 81 80 80 66 75 77 78 78 78 78 79 79 75 75 76 77 76 76 76 75 76 74 72 72 72 71 71 70 68 68 68 68 66 65 64 64 65 64 64 63 64
84 82 81 81 76 79 78 78 78 67 75 77 77 78 78 78 78 77 77 77 76 75 75 74 73 72 71 70 71 71 70 71 69 67 65 66 66 60 64 66 66 63 63
80 79 78 80 77 76 77 76 77 77 77 76 76 76 78 78 78 78 76 76 72 69 73 74 73 72 70 68 69 64 45 43 58 47 65 64 62 61 63 65 63 63 60
80 80 78 78 77 76 75 75 75 75 75 73 70 74 74 73 73 74 75 74 72 70 72 73 72 71 69 68 66 44 35 40 51 39 55 61 61 62 63 62 60 62 59

GFSGL_sfc_temp_144.txt.gz
Temp
85 84 83 84 84 85 85 83 85 86 87 86 84 84 85 86 87 85 83 82 82 83 83 84 83 84 83 83 83 82 81 80 77 80 82 85 84 84 85 85 82 76 71
86 85 85 85 84 85 84 85 85 84 86 87 85 86 84 86 84 84 82 83 83 83 82 83 83 88 82 81 81 80 79 74 75 73 78 78 81 84 84 83 85 83 74
87 87 85 85 83 84 83 85 86 85 85 86 85 83 83 84 83 83 83 82 83 83 83 81 82 82 80 81 80 80 77 78 74 71 73 79 81 80 80 82 74 73 79
87 85 83 83 83 86 85 83 85 84 83 83 83 82 83 84 83 84 83 82 82 84 82 83 82 82 81 79 81 79 81 78 76 76 76 77 77 76 75 75 72 73 73
86 85 83 82 83 83 83 83 84 83 83 83 82 82 82 83 86 76 82 83 81 81 82 83 83 77 76 76 80 79 78 77 75 74 75 73 75 73 72 74 73 73 74
85 85 85 83 83 83 82 82 82 82 83 82 80 81 80 80 67 69 72 81 81 79 79 80 80 79 76 72 73 72 72 75 74 73 72 71 74 73 73 74 73 72 70
83 85 84 83 82 82 83 83 82 81 81 81 82 81 80 66 64 65 69 79 79 79 79 78 80 83 77 78 70 69 70 70 71 72 73 73 74 75 74 73 73 72 72
82 83 83 83 82 82 81 81 79 80 81 79 80 80 75 65 63 63 65 75 78 79 80 79 79 79 66 69 73 74 74 72 69 69 70 69 68 69 71 73 74 74 74
80 81 81 82 81 80 81 81 81 79 78 78 74 74 69 65 61 61 65 78 80 79 75 67 72 71 61 62 73 74 75 67 63 63 64 65 65 67 69 72 67 68 67
78 79 80 79 81 79 78 76 78 73 70 69 68 68 65 67 57 58 63 73 72 73 69 65 60 59 58 60 70 71 70 70 70 69 70 68 68 67 66 65 65 63 67
73 76 76 74 78 78 75 75 74 71 67 66 64 64 63 62 60 56 58 68 68 68 65 61 60 56 56 56 59 62 62 64 68 67 67 64 67 64 64 63 62 62 61
70 70 70 71 72 72 69 67 65 63 60 59 59 59 58 58 56 55 55 57 62 62 59 58 56 52 52 54 58 57 58 61 61 58 56 55 58 58 60 61 61 62 63
70 68 68 70 71 70 68 66 65 64 61 60 58 57 57 58 58 55 54 56 59 60 58 55 55 53 54 58 56 57 62 64 61 57 55 55 57 58 62 62 62 61 62
65 65 66 68 68 69 69 68 66 64 61 61 59 58 58 60 64 62 60 61 58 60 59 61 58 58 56 60 62 62 62 61 60 58 57 58 57 57 56 59 61 62 59
67 66 65 64 63 60 58 58 65 58 57 65 67 65 63 60 56 50 52 65 67 63 64 65 65 63 63 63 63 63 61 60 60 60 59 59 59 60 59 61 60 61 61
62 63 64 64 63 63 63 58 47 48 47 46 47 59 56 49 47 46 46 48 51 51 64 66 64 63 63 64 63 63 63 63 62 60 60 60 61 60 61 62 63 62 61
68 67 69 67 65 64 66 65 60 52 47 46 45 47 50 49 47 45 46 47 49 52 63 68 66 65 65 64 64 63 63 61 62 62 62 61 61 60 59 59 60 61 60
73 64 73 74 74 73 73 72 69 65 63 60 49 52 46 46 48 47 46 49 63 58 65 67 66 64 63 64 64 63 63 62 61 61 61 62 61 61 60 60 58 56 56
75 77 77 76 75 73 74 74 73 72 70 67 63 52 48 45 45 46 46 58 63 66 67 66 66 65 63 63 63 60 60 58 58 58 58 57 56 57 56 55 52 52 52
73 67 72 76 75 77 77 78 76 74 72 71 71 67 60 54 58 60 59 63 66 69 69 69 69 68 65 65 63 63 61 60 60 61 58 58 58 58 56 55 56 55 55
76 76 65 76 78 78 78 76 76 77 76 75 74 67 60 69 68 69 70 70 71 72 70 70 67 67 66 65 65 63 62 63 60 59 58 56 56 56 56 55 56 56 56
79 77 78 79 77 75 75 76 76 77 77 76 73 64 54 71 71 71 71 72 72 70 70 69 68 67 67 65 63 65 64 63 62 61 61 60 59 58 58 58 58 58 57
81 80 77 76 74 68 74 75 75 75 76 76 76 72 70 72 73 72 72 74 72 70 70 71 69 68 68 68 68 66 64 64 64 63 61 60 60 59 60 59 59 58 56
81 81 80 76 76 77 74 75 76 67 74 76 75 75 75 75 76 75 75 75 71 70 71 70 70 71 69 67 67 68 66 64 63 63 62 61 61 57 59 60 60 57 57
78 77 77 76 72 73 73 72 75 73 74 75 74 74 74 74 74 73 70 70 72 71 69 70 70 71 70 68 60 57 42 42 54 49 61 61 59 58 59 59 58 57 56
77 78 77 76 75 73 72 72 71 72 72 72 72 72 71 67 72 72 72 71 65 65 70 65 64 69 68 67 58 42 36 44 49 41 55 60 58 58 59 59 58 57 57

GFSGL_sfc_temp_147.txt.gz
Temp
77 76 75 76 77 75 75 77 77 76 75 74 77 78 78 80 78 77 77 76 76 75 78 76 76 77 76 76 75 74 72 74 70 72 76 78 78 78 78 73 73 69 67
79 78 76 77 76 76 76 77 78 77 77 77 78 77 77 77 77 77 77 78 75 76 76 75 76 81 76 76 75 73 72 71 71 71 69 73 72 77 80 73 75 73 68
80 79 79 77 75 75 75 77 77 77 77 77 76 76 76 77 76 77 76 76 76 76 75 75 75 77 78 77 74 73 72 73 71 69 69 72 74 73 73 72 70 67 69
80 79 79 77 76 77 76 76 76 76 76 77 76 76 77 77 77 77 76 76 76 78 77 76 75 75 78 74 75 73 74 72 71 70 70 70 70 72 71 69 68 66 64
80 77 77 75 75 76 75 75 76 76 77 76 76 76 76 77 78 71 73 75 75 75 76 76 74 75 73 71 71 72 72 71 70 69 68 68 69 68 67 71 70 70 66
80 79 76 76 75 75 75 76 76 76 76 76 75 75 75 75 67 68 70 73 75 74 74 75 75 75 74 72 70 70 70 70 69 68 68 68 68 70 70 70 69 69 67
77 78 77 77 76 75 75 75 75 74 75 75 75 75 73 65 64 66 68 72 73 73 74 74 75 76 70 72 68 69 69 70 69 69 68 68 67 66 68 70 71 69 68
74 73 74 76 75 75 75 74 73 74 74 73 73 73 66 63 64 63 65 69 71 72 70 69 68 64 62 64 69 71 70 67 66 68 67 64 63 64 66 68 67 68 66
73 75 75 75 74 72 70 72 73 73 72 69 69 68 65 64 62 61 65 72 72 64 62 62 63 61 60 61 68 68 68 63 63 64 64 63 63 64 65 66 61 64 64
71 73 73 72 70 72 70 70 70 68 67 66 65 65 63 61 58 59 62 70 68 63 63 60 59 59 58 59 65 65 66 64 63 65 67 65 65 64 64 63 63 60 62
70 71 72 71 71 69 68 69 67 66 65 63 61 60 59 59 57 56 58 64 66 63 61 59 59 56 55 56 59 62 62 63 63 60 63 63 63 63 63 63 62 63 60
69 69 68 68 68 67 65 64 63 62 60 59 59 58 58 58 56 55 56 58 62 61 58 57 56 53 53 54 58 57 58 60 60 57 57 56 58 58 60 60 60 60 61
67 67 67 67 66 65 64 64 62 61 59 58 58 57 57 58 58 55 55 57 58 58 57 56 55 54 53 56 57 58 59 59 58 58 55 54 55 56 61 61 61 62 61
65 65 65 64 64 64 64 63 63 60 59 58 57 57 58 59 59 59 59 58 58 57 58 56 56 56 57 57 58 57 57 57 56 55 56 57 57 56 54 58 56 59 58
63 62 61 61 59 55 51 51 56 49 54 59 59 58 57 56 53 50 51 57 57 58 57 57 57 57 57 58 58 59 56 56 55 55 55 56 54 54 55 55 55 55 55
61 61 59 59 59 58 56 53 48 48 46 46 50 57 49 48 47 46 46 48 50 51 57 57 56 56 55 56 55 55 56 58 56 56 56 56 55 54 55 55 54 54 54
62 62 62 61 63 60 59 58 55 53 48 46 46 49 50 47 46 46 46 47 50 51 54 56 56 56 55 56 56 56 54 54 55 55 54 54 55 54 53 54 54 54 53
63 61 63 63 62 61 61 59 57 55 54 53 49 49 46 48 47 46 46 48 53 52 54 57 56 57 56 55 54 54 54 54 53 54 54 54 54 54 53 51 51 50 50
63 62 63 63 63 62 62 61 60 59 57 54 50 48 45 45 45 44 44 51 54 55 56 57 56 55 55 54 53 52 52 52 52 51 49 49 49 49 48 47 48 49 48
63 63 64 63 62 61 62 61 61 60 58 56 54 54 50 48 51 52 51 52 53 56 57 56 56 57 55 54 53 52 51 51 51 49 48 48 47 48 47 46 47 46 46
64 64 64 63 62 62 62 62 60 60 60 58 58 57 51 54 55 56 54 54 55 56 57 56 55 55 54 54 53 52 52 51 49 49 48 47 47 47 47 47 47 47 47
65 64 64 63 63 62 61 61 61 62 62 60 57 55 49 55 59 59 57 58 58 59 59 57 56 56 55 54 54 54 52 51 50 50 49 48 48 48 48 48 47 47 47
66 66 65 64 63 61 61 62 61 61 61 62 60 58 57 58 59 59 59 59 58 58 58 58 57 55 55 55 55 54 53 52 51 50 50 49 49 48 48 47 48 46 46
67 68 66 65 65 62 61 61 62 62 63 64 63 61 58 58 59 61 60 59 58 61 62 61 59 57 56 55 53 52 52 51 51 52 51 50 48 48 48 48 48 48 47
65 65 65 65 62 61 60 59 59 58 61 62 61 60 59 59 59 59 58 60 63 62 58 60 59 62 56 53 50 47 41 42 48 47 50 50 50 50 49 48 49 49 51
65 64 62 62 61 58 57 56 56 55 56 57 56 56 56 57 57 59 60 61 57 59 60 58 58 59 55 53 50 42 35 42 44 40 47 48 48 47 48 48 50 48 48